Hourly Data Report for August 15, 2022

VICTORIA UNIVERSITY CS
BRITISH COLUMBIA
Current Station Operator: ECCC - MSC

48°27'25.200" N
123°18'16.600" W
60.10 m
1018598
71783
WYJ

Download Data

Hourly Data (August 2022)
Hourly Data Report for August 15, 2022
TIME
LST
Temp Definition
°C
Dew Point Definition
°C
Rel Hum Definition
%
Precip. Amount Definition
mm

Wind Dir Definition
10's deg

Wind Spd Definition
km/h
Visibility Definition
km
Stn Press Definition
kPa
Hmdx Definition


Wind Chill Definition


Weather Definition


00:00 15.4 11.9 80 0.0 0 1   101.13     LegendNANA
01:00 14.2 11.5 84 0.0   0   101.08     LegendNANA
02:00 13.3 10.9 85 0.0 13 1   101.08     LegendNANA
03:00 11.9 10.0 88 0.0 0 1   101.10     LegendNANA
04:00 11.7 10.6 93 0.0 24 1   101.08     LegendNANA
05:00 11.7 10.6 93 0.0 23 1   101.08     LegendNANA
06:00 12.2 11.1 93 0.0 0 1   101.09     LegendNANA
07:00 17.4 12.4 73 0.0   0   101.09     LegendNANA
08:00 17.3 11.8 70 0.0 11 2   101.10     LegendNANA
09:00 18.6 11.7 64 0.0 10 3   101.13     LegendNANA
10:00 19.8 12.1 61 0.0 10 4   101.12     LegendNANA
11:00 20.3 12.4 60 0.0 10 4   101.10     LegendNANA
12:00 22.0 13.1 57 0.0 12 3   101.06 25   LegendNANA
13:00 23.6 13.3 52 0.0 11 3   101.03 27   LegendNANA
14:00 24.3 10.4 41 0.0 19 9   100.99 26   LegendNANA
15:00 25.6 11.6 42 0.0 19 7   100.93 28   LegendNANA
16:00 26.5 12.2 41 0.0 22 5   100.88 29   LegendNANA
17:00 26.0 13.5 46 0.0 22 6   100.83 29   LegendNANA
18:00 24.7 12.5 47 0.0 24 7   100.79 27   LegendNANA
19:00 23.0 11.5 48 0.0 24 8   100.80 25   LegendNANA
20:00 21.1 12.3 57 0.0 24 6   100.83     LegendNANA
21:00 19.8 12.5 63 0.0 24 5   100.86     LegendNANA
22:00 18.2 13.1 72 0.0 23 6   100.86     LegendNANA
23:00 17.4 13.3 77 0.0 24 5   100.89     LegendNANA

Notes on Data Quality.

Legend

  • E = Estimated
  • M = Missing
  • NA = Not Available*
  • [empty] = Indicates an unobserved value
Date modified: